User: anonymous   Login
Location: Unspecified
(0.0000°N, 0.0000°E)
Time: 01:49:16
(UTC+00:00)
Language:

STARLINK-1199 - Orbit

View from above orbital plane
View from above orbital plane
View from above satellite
View from above satellite

Ground track
Ground track

The orbit is defined by the following mean orbital elements,

1 45201U          26145.40771759 +.00000000 +00000-0 +12742-2 0 00001
2 45201  53.1585  26.8919 0002390 140.5376 219.5800 15.33606930    07
Epoch (UTC): 25 May 2026 09:47:06
Eccentricity: 0.0002390
inclination: 53.1585°
perigee height: 463 km
apogee height: 467 km
right ascension of ascending node: 26.8919°
argument of perigee: 140.5376°
revolutions per day: 15.33606930
mean anomaly at epoch: 219.5800°

The dashed part of the orbit path shows where the satellite is in the earth's shadow,  

DLR